Location: Most
(50.5133°N, 13.6207°E)
Time: 22:01:26
(UTC+02:00)

ISS - Pass Details

Date: 23 September 2024
Orbit: 412 x 424 km, 51.6° (Epoch: 09 October)

Event Time Altitude Azimuth Distance (km) Brightness Sun altitude
Rises 19:44:25 0° 278° (W) 2,368 2.7 -7.8°
Reaches altitude 10° 19:46:31 10° 280° (W) 1,506 0.8 -8.1°
Maximum altitude 19:49:54 73° 5° (N) 446 -3.6 -8.6°
Enters shadow 19:52:54 13° 91° (E) 1,356 -1.8 -9.1°
